STARLINK-33781, 63826

Orbit data source: Space-Track

STARLINK-33781, 63826 is a payload satellite owned by SpaceX/Seattle (US) in LEO that was launched on Sun, 04 May 2025 UTC via an FALCON 9 launch vehicle from the Air Force Eastern Test Range (AFETR). Payload-class satellites include a variety of spacecraft equipped with specific instruments for various scientific and technological missions. These include communications satellites like Starlink; space stations such as the ISS; scientific satellites like the Hubble; Earth observation satellites from companies like Planet Labs, Umbra, and HawkEye 360; GPS; miniature CubeSats for education and research; and military/defense satellites.

Loading next visibility...
Identifier
63826, 2025-092Y
Orbit
LEO
Last TLE update
16 hours ago
Origin
Manufacturer
SpaceX/Seattle
Mission
Operational spacecraft
Bus & Motor
STARLINK V2MO, Unknown motor
Mass
575 kg wet, ~530 kg dry
Launch date (UTC)
2025-05-04 (1 week ago)
Launch vehicle
FALCON 9
Launch site
Air Force Eastern Test Range (AFETR)
Object type
Payload
Rocket body
Debris
Shape & HBR
Unknown
Radar Cross Section
Medium (>0.1 m² and <1 m²)

Expand to show TLE details & history

TLE from 16 hours ago
0 STARLINK-33781
1 63826U 25092Y   25132.91668981 -.01043948  00000-0 -37712-2 0  9997
2 63826  43.0012  80.0730 0001580 254.0106  91.7523 15.89990660  2560
Epoch: 2025-05-12T22:00Z
Definitive object data (Epoch: 2025-05-12T22:00:01.999Z)
Latitude
-9.759°
Longitude
-131.42549°
Altitude
303.887 km
Speed
7.727 km/s
True Right ascension
04h 38m 01s
True Declination
-9° 41' 52"
Sunlit
Object was in daylight at TLE epoch
Visualization TLE readout
Latitude
-42.53726°
Longitude
156.87857°
Altitude
318.509 km
Speed
7.718 km/s
Apparent Right ascension
05h 11m 05s
Apparent Declination
-80° 33' 21"
Sunlit
Object is in daylight
Visualization observer readout
Local Sidereal Time
22:44:35
Azimuth
167.65° S
Elevation
-40.353°
Doppler factor
1
Orbital elements
Apogee altitude
305.362 km
Perigee altitude
303.251 km
Semi-major axis
6,682.443 km
Eccentricity
0.000158
Inclination
43.0012°
RAAN
80.073°
Arg. of periapsis
254.0106°
True anomaly
91.7704°
Mean anomaly
91.7523°
Eccentric anomaly
91.76135°
Mean motion
3.9732 °/min
BSTAR
-0.0037712
Orbital period
90.61 mins
Loading maneuver chart data...
Loading SW <> Apogee altitude chart data...
Loading historical data...
Loading historical data...
Loading historical data...
Loading historical data...
Loading historical data...
Loading historical data...
Loading historical data...

STARLINK-33781 Visibility forecast

Observer location: undefined°, undefined°

Span
Click to sort rows by Start time (UTC) header in descending order
Start Az.
Max El. time (UTC)
Max El. Az.
Max El.
End time (UTC)
End Az.
4 mins2025-05-13 23:56:41.207Z218.659° SW2025-05-13 23:58:41.207Z124.711° SE31.391°2025-05-14 00:00:41.207Z82.048° E
|